Dewpoint
-6 -6 -6 -6 -6 -5 -5 -5 -6 -6 -6 -6 -6 -6 -7 -7 -8 -7 -6 -5 -4 -4 -3 -3 -2 -0 1 2 2 3 3 3 3 3 3 3 3 3 3 3 3 3
-6 -6 -6 -6 -6 -6 -5 -6 -6 -6 -6 -6 -6 -6 -6 -7 -7 -7 -6 -5 -4 -4 -3 -3 -2 -1 0 1 2 3 3 3 3 3 3 3 3 3 3 3 3 3
-6 -6 -6 -6 -6 -6 -6 -6 -6 -5 -6 -6 -6 -6 -6 -6 -6 -6 -6 -5 -4 -4 -3 -3 -3 -2 -1 1 2 2 3 3 3 3 3 3 3 3 3 3 3 2
-6 -6 -6 -6 -6 -6 -6 -6 -6 -5 -6 -6 -6 -6 -6 -6 -6 -6 -6 -5 -5 -4 -4 -3 -3 -3 -2 -0 1 2 2 3 3 3 3 3 3 3 3 2 2 2
-6 -6 -5 -5 -6 -6 -6 -6 -6 -5 -6 -6 -5 -6 -5 -5 -6 -6 -6 -6 -5 -4 -4 -4 -3 -3 -3 -1 0 1 2 2 3 3 3 3 3 2 1 1 1 0
-5 -5 -6 -5 -5 -5 -6 -6 -6 -5 -6 -5 -5 -5 -5 -5 -5 -5 -5 -5 -5 -4 -4 -4 -3 -3 -3 -2 -0 1 1 2 2 2 2 2 2 1 1 1 0 -0
-4 -4 -5 -5 -4 -4 -5 -5 -6 -6 -6 -5 -5 -5 -5 -5 -5 -5 -5 -5 -5 -4 -4 -4 -3 -3 -3 -2 -1 0 1 1 2 2 2 2 2 1 1 1 0 -0
-3 -3 -4 -5 -5 -4 -4 -4 -5 -5 -5 -5 -5 -5 -5 -5 -5 -5 -5 -5 -5 -4 -4 -4 -3 -3 -2 -2 -1 -0 0 1 1 2 2 2 1 1 1 0 -0 -0
-3 -3 -3 -4 -4 -4 -4 -4 -4 -4 -5 -5 -5 -5 -5 -5 -4 -4 -4 -4 -5 -4 -4 -3 -3 -3 -2 -2 -1 -1 -0 0 1 1 1 1 1 1 1 0 -1 -1
-4 -3 -3 -3 -3 -4 -4 -3 -3 -4 -4 -5 -5 -5 -5 -5 -4 -4 -4 -4 -4 -4 -4 -3 -3 -2 -2 -2 -1 -0 -0 0 1 1 1 1 1 1 0 -1 -1 -1
-4 -3 -3 -3 -3 -4 -4 -3 -3 -3 -4 -4 -4 -5 -5 -4 -4 -4 -4 -4 -4 -4 -3 -3 -3 -2 -2 -2 -1 -1 -0 -0 0 1 1 1 1 0 -0 -1 -2 -2
-4 -3 -3 -3 -3 -3 -4 -4 -3 -3 -3 -3 -4 -4 -4 -4 -4 -4 -4 -4 -4 -4 -3 -3 -3 -2 -2 -2 -1 -1 -1 -0 -0 0 0 0 -0 -0 -1 -2 -3 -3
-4 -4 -3 -3 -3 -3 -3 -4 -3 -3 -3 -3 -4 -4 -4 -4 -4 -3 -4 -4 -4 -3 -3 -3 -3 -2 -2 -2 -1 -1 -1 -0 -0 -0 -0 -0 -0 -1 -2 -3 -4 -4
-6 -5 -4 -3 -3 -3 -3 -3 -3 -3 -3 -3 -3 -4 -4 -4 -3 -3 -3 -4 -4 -3 -3 -3 -3 -2 -2 -2 -1 -1 -1 -1 -0 -0 -0 -1 -1 -2 -2 -3 -4 -4
-6 -6 -6 -4 -3 -3 -3 -3 -3 -3 -3 -3 -3 -4 -4 -4 -3 -3 -3 -3 -4 -3 -3 -3 -3 -3 -2 -2 -2 -1 -1 -1 -1 -1 -1 -1 -2 -2 -3 -4 -4 -5
-6 -6 -6 -5 -5 -4 -3 -3 -3 -3 -3 -3 -3 -4 -4 -4 -3 -3 -3 -3 -3 -3 -3 -3 -3 -3 -2 -2 -2 -2 -1 -1 -1 -1 -1 -2 -2 -3 -4 -4 -5 -5
-6 -5 -5 -5 -5 -5 -4 -3 -3 -3 -3 -3 -3 -4 -4 -4 -3 -3 -3 -3 -3 -4 -3 -3 -3 -3 -3 -2 -2 -2 -1 -1 -1 -1 -2 -2 -3 -4 -4 -5 -5 -5
-5 -5 -5 -5 -5 -5 -4 -4 -3 -3 -3 -3 -3 -4 -4 -4 -3 -3 -3 -3 -3 -4 -3 -3 -3 -3 -3 -3 -2 -2 -2 -2 -2 -2 -2 -2 -3 -4 -4 -5 -6 -6
-5 -5 -5 -5 -5 -4 -4 -4 -3 -3 -3 -3 -3 -3 -4 -4 -3 -3 -3 -4 -4 -4 -3 -3 -3 -3 -3 -3 -3 -2 -2 -2 -2 -2 -3 -3 -3 -4 -5 -6 -6 -6
-5 -5 -5 -5 -5 -5 -4 -4 -4 -3 -3 -3 -3 -3 -4 -4 -3 -3 -3 -4 -4 -4 -3 -3 -3 -3 -3 -3 -3 -3 -2 -3 -3 -3 -3 -3 -4 -5 -6 -6 -6 -7
-4 -4 -4 -4 -4 -4 -4 -4 -4 -3 -3 -3 -3 -4 -4 -4 -4 -3 -4 -4 -4 -4 -4 -3 -3 -3 -3 -3 -3 -3 -3 -3 -4 -4 -4 -4 -5 -6 -6 -6 -7 -8
-4 -4 -4 -4 -4 -4 -4 -4 -3 -3 -3 -3 -3 -4 -4 -4 -4 -4 -4 -4 -4 -4 -4 -4 -3 -3 -3 -3 -3 -3 -3 -4 -4 -4 -4 -5 -6 -6 -7 -7 -9 -11
-4 -4 -4 -4 -4 -4 -4 -3 -3 -3 -4 -4 -4 -4 -4 -4 -4 -4 -4 -4 -4 -4 -4 -4 -3 -3 -4 -4 -4 -4 -4 -4 -5 -5 -5 -5 -6 -7 -7 -8 -11 -13
-3 -3 -3 -4 -4 -4 -3 -3 -3 -3 -4 -4 -4 -4 -4 -4 -4 -4 -4 -4 -4 -4 -4 -4 -4 -4 -4 -4 -4 -4 -4 -4 -5 -6 -6 -6 -7 -7 -8 -10 -12 -14
-3 -3 -3 -3 -3 -3 -3 -3 -3 -3 -4 -4 -4 -4 -4 -4 -4 -5 -4 -4 -4 -4 -4 -4 -4 -4 -4 -5 -5 -5 -5 -5 -6 -6 -6 -7 -7 -8 -9 -12 -14 -15
-3 -3 -3 -3 -2 -3 -3 -2 -2 -3 -3 -4 -4 -4 -4 -4 -4 -5 -5 -5 -5 -4 -4 -4 -4 -4 -5 -5 -5 -6 -6 -6 -6 -6 -7 -7 -8 -9 -10 -13 -15 -15
Wind_Speed
32 30 27 25 23 21 19 18 17 17 18 19 19 18 17 17 18 19 20 21 21 21 20 20 20 20 20 20 21 22 22 23 24 27 29 29 29 28 29 29 29 30
36 34 31 29 27 24 22 20 20 19 19 19 20 19 18 17 18 19 20 21 22 22 22 21 22 22 22 22 23 23 24 25 25 26 28 28 28 29 29 29 30 30
35 38 35 32 30 26 24 23 22 21 20 20 21 21 19 18 18 19 20 21 22 23 24 23 22 23 23 24 24 25 25 26 27 28 29 30 30 30 31 31 31 31
31 38 39 35 32 29 27 26 24 23 21 21 22 22 21 20 19 19 20 21 22 23 24 25 24 24 24 24 25 26 25 25 26 27 29 30 30 30 30 30 31 32
26 34 39 38 34 31 30 28 26 24 23 23 23 24 23 21 20 21 21 21 22 23 24 26 26 25 24 24 25 26 26 25 25 26 27 28 29 28 27 27 28 30
24 28 35 40 38 33 31 30 28 26 25 25 25 25 24 23 21 21 22 21 22 23 24 26 26 25 24 24 25 26 26 25 25 25 26 27 27 26 25 25 26 28
26 26 29 36 40 38 34 32 30 29 28 27 26 26 25 25 23 22 22 22 22 23 24 25 26 25 24 24 25 26 26 25 25 25 26 26 26 25 24 25 26 27
29 28 27 29 35 39 39 35 32 31 30 29 27 26 26 26 25 23 23 23 23 23 24 25 25 25 24 24 24 25 25 25 25 25 26 26 25 24 24 24 25 26
31 31 30 28 30 34 39 39 35 33 32 30 28 27 27 27 26 24 23 23 23 23 24 24 25 25 24 23 23 23 24 25 25 25 25 25 25 24 24 24 24 24
30 30 30 29 29 29 33 37 36 34 32 32 30 29 28 28 27 25 24 23 23 24 24 24 25 24 23 22 22 23 24 25 25 25 25 25 25 25 25 24 24 24
26 27 27 28 27 26 27 31 34 35 34 33 31 30 30 29 28 26 24 23 23 24 24 24 24 24 23 23 23 23 24 25 25 26 26 26 25 25 24 24 24 23
19 20 22 23 23 23 24 26 30 33 34 33 32 31 30 29 28 26 24 23 23 23 23 23 23 23 23 23 22 23 24 25 25 25 26 26 25 25 24 24 23 22
14 15 17 18 20 20 22 24 27 30 32 32 32 31 31 29 27 25 24 23 23 23 23 23 23 23 22 22 22 23 24 25 25 26 25 25 25 25 24 24 22 22
14 15 15 17 18 19 21 23 26 29 31 31 32 31 31 29 27 25 25 24 23 23 22 23 23 22 22 21 21 22 23 24 25 26 26 25 25 24 24 23 22 21
16 17 17 17 18 19 21 23 25 28 30 31 32 31 30 28 27 26 25 24 23 22 22 23 23 22 21 21 21 22 23 24 25 25 25 25 25 24 24 23 22 22
17 18 19 19 20 21 22 24 26 28 29 30 31 31 30 28 28 27 26 24 22 22 22 22 22 21 20 21 22 23 24 25 25 25 25 25 25 24 24 23 23 22
20 20 21 22 22 22 23 24 25 27 28 29 30 30 30 29 28 27 25 23 22 21 22 22 22 21 20 21 23 24 25 25 26 26 25 25 25 24 23 23 23 23
22 23 23 24 24 23 23 23 25 26 27 29 30 30 30 29 28 27 25 23 22 21 21 22 22 21 21 22 23 24 25 25 25 26 26 25 25 24 24 23 23 24
24 25 25 25 26 25 24 23 24 26 27 28 29 30 30 29 27 26 25 23 22 21 21 22 22 21 21 23 24 25 26 26 26 26 26 26 25 25 24 24 23 24
26 26 27 27 28 28 26 24 24 25 26 28 29 30 29 28 27 26 24 23 22 21 21 21 22 22 22 23 25 26 26 26 26 26 26 26 25 24 24 24 24 25
26 28 29 29 29 29 28 26 24 24 25 27 28 29 28 27 26 25 24 23 22 21 21 21 22 22 23 24 25 26 26 26 26 26 26 26 25 25 23 23 24 26
27 28 29 29 29 29 28 26 24 22 23 25 26 27 27 26 26 25 24 23 22 22 22 22 22 22 24 25 26 26 27 27 27 27 27 26 26 25 24 24 25 27
27 28 29 29 29 28 27 25 22 20 20 22 24 25 26 26 25 24 24 23 22 22 22 22 22 23 24 26 26 27 28 28 27 27 28 27 26 26 25 26 27 28
28 29 29 29 28 27 25 24 21 19 18 19 22 24 24 25 25 24 24 24 23 23 22 22 22 23 25 26 27 27 28 28 27 28 28 27 27 27 26 27 28 28
29 29 29 28 27 25 24 23 21 19 18 19 20 22 24 24 25 25 25 25 24 23 22 23 23 24 25 27 27 27 29 28 27 28 28 28 29 29 29 29 30 30
29 29 29 28 26 25 23 22 20 20 19 19 20 22 24 25 25 25 25 25 24 24 23 24 24 25 26 27 27 28 29 28 27 29 29 29 30 31 31 32 32 32
Wind_Direction
256 258 259 261 262 265 267 269 271 274 278 282 284 288 290 293 295 295 292 289 287 284 279 272 267 262 256 253 251 249 247 247 246 244 244 245 245 244 243 243 244 244
253 255 256 257 259 262 264 265 266 269 273 278 282 284 287 290 291 291 291 288 286 285 283 276 268 262 256 252 251 250 248 246 246 245 245 245 245 245 244 244 244 244
251 251 254 256 258 260 261 261 264 267 270 274 278 281 284 286 287 288 288 287 285 285 284 281 273 264 257 252 250 250 250 248 246 245 245 246 246 247 247 246 245 244
253 249 251 255 257 257 259 260 263 266 268 271 274 278 281 282 284 286 287 286 285 284 283 282 278 269 259 253 251 250 251 252 250 249 248 248 249 250 251 250 248 246
259 251 250 253 255 256 257 260 264 266 267 269 271 274 278 280 282 285 287 287 285 283 282 281 279 274 264 256 252 251 251 252 252 252 252 253 252 251 251 253 253 250
271 261 253 252 253 256 257 260 264 266 266 267 269 272 275 278 280 283 285 286 285 283 281 280 279 275 267 258 253 252 252 252 253 252 252 252 251 250 251 255 256 252
279 275 265 256 254 254 257 259 262 264 266 266 268 271 274 277 278 281 283 284 284 283 281 280 278 275 269 260 255 253 252 252 253 253 253 252 251 250 253 256 256 252
280 279 278 270 260 254 254 257 260 262 265 267 268 270 273 275 277 279 281 282 283 284 282 281 279 275 269 261 257 254 253 253 254 254 254 253 252 251 253 255 254 250
282 281 281 280 272 262 255 255 258 261 264 267 268 269 271 273 275 277 279 281 283 285 284 282 279 275 269 262 257 255 253 253 255 255 254 253 252 252 252 252 250 247
288 286 284 283 281 274 262 255 256 259 263 266 267 268 270 271 273 275 277 280 283 286 285 283 279 274 268 263 258 255 254 255 255 256 255 254 254 252 251 249 245 242
294 292 290 287 285 282 271 260 257 259 262 265 266 267 267 269 271 273 276 280 284 285 285 282 278 272 266 262 257 254 254 255 255 256 256 254 252 250 248 246 243 239
303 301 297 293 288 284 277 267 261 260 261 263 264 265 265 266 268 272 276 279 282 283 282 280 276 270 265 262 257 253 254 255 256 256 256 254 251 248 246 244 241 237
316 310 303 295 288 282 275 268 263 261 261 262 262 262 263 264 266 270 274 276 278 279 280 279 273 267 264 261 258 255 255 256 256 256 255 254 251 248 245 241 239 236
315 311 306 298 290 283 275 268 263 261 260 260 260 260 261 263 265 268 270 273 277 279 280 279 272 265 263 260 257 257 256 257 257 256 254 252 250 248 245 240 238 236
308 308 307 302 295 288 280 273 267 262 259 258 258 259 260 263 264 266 269 272 276 279 280 279 272 265 261 257 255 255 256 256 257 256 253 250 248 246 244 240 238 236
303 305 305 304 299 293 286 279 272 266 261 259 258 259 261 263 263 264 268 272 276 279 281 279 272 264 258 254 251 253 254 254 255 254 252 249 246 244 242 240 238 236
298 299 301 301 301 298 293 286 278 270 264 260 259 259 260 261 262 264 267 271 275 279 280 278 272 263 254 250 249 251 253 253 253 252 249 247 244 242 241 240 238 235
293 294 297 300 301 302 298 291 283 274 267 261 258 259 260 261 263 264 267 271 273 276 278 276 272 261 251 248 248 250 252 252 252 250 247 245 243 240 238 237 236 233
292 293 297 299 301 302 300 294 286 278 269 263 259 259 260 261 262 264 267 271 274 277 277 275 271 262 250 247 248 250 251 251 251 249 246 244 241 238 236 234 233 230
295 296 298 299 299 300 300 296 289 279 272 265 260 259 260 261 263 266 268 271 274 276 275 273 270 262 251 248 249 250 251 251 250 247 245 242 239 236 234 232 230 227
299 299 299 299 299 299 298 296 289 280 273 266 260 260 261 262 264 266 267 270 273 274 272 269 266 259 251 249 250 251 250 250 248 246 243 240 236 232 229 228 226 224
301 301 300 300 299 298 296 294 289 282 276 269 264 262 262 263 264 266 267 269 271 271 269 266 263 257 251 249 250 250 250 249 247 245 242 238 233 227 223 221 221 220
303 302 302 301 299 297 295 291 288 283 278 272 267 264 263 264 265 265 266 266 267 269 268 266 262 256 251 249 249 250 250 248 245 243 241 237 231 225 220 217 217 219
303 302 301 300 298 297 294 290 287 281 274 269 266 264 264 264 264 263 263 264 267 269 269 266 262 256 251 250 249 249 250 248 245 242 239 234 228 222 217 215 216 219
301 300 299 297 297 296 294 291 286 279 271 266 263 263 263 263 262 263 264 266 268 270 270 268 263 256 250 249 248 248 248 246 243 240 237 231 225 218 213 213 215 217
298 296 295 294 294 294 293 290 285 278 272 266 262 261 261 261 262 263 264 266 267 268 268 267 263 257 251 249 249 248 248 246 241 238 235 229 223 217 213 212 213 216
Height
1493 1492 1492 1492 1492 1491 1491 1490 1490 1489 1489 1489 1488 1487 1486 1485 1484 1484 1483 1482 1481 1480 1479 1479 1478 1477 1477 1477 1476 1476 1476 1476 1476 1477 1477 1478 1478 1478 1478 1479 1480 1480
1487 1488 1488 1487 1487 1487 1487 1487 1486 1486 1486 1486 1485 1484 1483 1482 1481 1481 1480 1479 1479 1478 1477 1476 1475 1474 1474 1473 1473 1473 1473 1473 1473 1473 1474 1474 1475 1475 1475 1476 1476 1476
1481 1482 1482 1482 1483 1483 1483 1483 1483 1482 1482 1482 1482 1481 1480 1479 1479 1478 1477 1477 1476 1475 1474 1473 1472 1471 1471 1470 1470 1470 1470 1470 1469 1470 1470 1470 1471 1471 1471 1472 1472 1472
1474 1475 1477 1478 1478 1479 1479 1479 1479 1479 1479 1479 1478 1478 1477 1477 1476 1475 1475 1474 1473 1472 1471 1470 1469 1468 1468 1468 1467 1467 1467 1467 1466 1466 1466 1467 1467 1468 1468 1468 1468 1469
1469 1470 1471 1473 1474 1474 1475 1475 1475 1475 1475 1475 1475 1474 1474 1473 1473 1472 1471 1471 1470 1469 1468 1467 1466 1465 1465 1464 1464 1464 1464 1464 1463 1463 1463 1463 1464 1464 1465 1465 1465 1465
1466 1466 1466 1468 1469 1470 1471 1471 1472 1472 1472 1471 1471 1470 1470 1470 1469 1468 1468 1467 1466 1466 1465 1464 1463 1462 1462 1461 1461 1461 1461 1461 1460 1460 1460 1460 1460 1460 1461 1461 1461 1461
1463 1462 1462 1463 1464 1465 1466 1467 1468 1468 1468 1467 1467 1466 1466 1466 1466 1465 1464 1464 1463 1462 1462 1461 1460 1459 1458 1458 1458 1458 1458 1458 1457 1457 1456 1456 1457 1457 1457 1457 1457 1458
1459 1459 1458 1459 1459 1460 1461 1462 1463 1463 1463 1463 1463 1463 1463 1462 1462 1461 1460 1460 1460 1459 1458 1457 1456 1456 1455 1455 1455 1455 1455 1455 1454 1454 1453 1453 1453 1453 1453 1454 1454 1454
1456 1455 1455 1455 1455 1455 1456 1457 1458 1459 1459 1459 1459 1459 1459 1458 1458 1457 1457 1456 1456 1456 1455 1454 1453 1452 1452 1452 1452 1452 1452 1452 1452 1451 1450 1450 1450 1450 1450 1450 1450 1451
1452 1451 1451 1451 1451 1451 1451 1452 1453 1454 1455 1455 1455 1455 1455 1454 1454 1453 1453 1453 1453 1452 1451 1451 1450 1449 1449 1448 1449 1449 1449 1449 1449 1448 1448 1447 1447 1447 1447 1447 1447 1447
1448 1448 1448 1447 1448 1447 1447 1448 1449 1450 1451 1451 1451 1451 1451 1450 1450 1450 1449 1449 1449 1449 1448 1447 1447 1446 1446 1445 1445 1446 1446 1446 1445 1445 1445 1444 1444 1444 1444 1444 1444 1444
1446 1445 1445 1444 1444 1444 1444 1444 1445 1446 1446 1447 1447 1447 1447 1446 1446 1446 1446 1446 1446 1445 1444 1444 1443 1443 1442 1442 1442 1442 1442 1442 1442 1442 1442 1442 1442 1441 1441 1442 1441 1442
1444 1443 1442 1442 1441 1441 1441 1441 1441 1442 1442 1443 1443 1443 1443 1443 1443 1443 1442 1442 1442 1441 1441 1440 1440 1439 1439 1439 1439 1439 1439 1439 1439 1439 1439 1439 1439 1439 1439 1439 1439 1439
1442 1441 1439 1439 1438 1438 1438 1437 1437 1438 1438 1439 1439 1439 1439 1439 1439 1439 1439 1438 1438 1438 1437 1437 1436 1436 1436 1436 1437 1436 1437 1436 1436 1436 1436 1436 1436 1436 1436 1436 1437 1437
1440 1438 1437 1437 1436 1435 1434 1434 1434 1434 1434 1435 1435 1435 1436 1436 1436 1435 1435 1435 1435 1434 1434 1433 1433 1433 1433 1433 1433 1433 1433 1433 1433 1433 1433 1433 1433 1433 1434 1434 1434 1434
1438 1436 1435 1434 1433 1432 1432 1431 1431 1430 1430 1431 1431 1432 1433 1432 1432 1432 1431 1431 1431 1430 1430 1430 1429 1429 1430 1430 1430 1430 1430 1430 1430 1430 1430 1430 1430 1431 1431 1431 1432 1432
1435 1434 1433 1432 1431 1430 1429 1428 1428 1427 1427 1428 1428 1429 1429 1429 1428 1428 1428 1428 1427 1427 1426 1426 1426 1426 1426 1427 1427 1427 1427 1427 1427 1427 1427 1427 1428 1428 1429 1429 1429 1430
1433 1432 1431 1430 1429 1428 1427 1426 1425 1424 1424 1424 1425 1425 1426 1425 1425 1425 1425 1425 1424 1424 1423 1423 1423 1423 1423 1423 1423 1424 1424 1424 1424 1424 1424 1424 1425 1425 1426 1426 1427 1428
1431 1430 1429 1428 1426 1425 1424 1423 1422 1421 1421 1421 1422 1422 1422 1422 1423 1423 1422 1422 1421 1421 1421 1420 1420 1420 1420 1420 1420 1421 1421 1421 1421 1421 1421 1421 1422 1422 1423 1424 1425 1426
1429 1427 1426 1425 1424 1422 1421 1420 1419 1418 1418 1418 1419 1419 1419 1420 1420 1420 1420 1420 1419 1418 1418 1418 1418 1418 1417 1417 1417 1418 1418 1418 1418 1418 1418 1418 1419 1420 1421 1422 1423 1424
1426 1425 1423 1422 1420 1419 1418 1417 1416 1415 1415 1415 1415 1416 1417 1417 1417 1417 1416 1416 1416 1415 1415 1414 1415 1415 1415 1414 1415 1415 1415 1415 1415 1415 1415 1415 1416 1417 1418 1420 1421 1423
1423 1421 1420 1418 1417 1416 1414 1413 1413 1412 1412 1413 1413 1413 1414 1414 1413 1413 1413 1413 1412 1411 1411 1411 1412 1412 1411 1411 1412 1412 1412 1412 1412 1412 1412 1412 1413 1414 1415 1417 1419 1421
1420 1418 1416 1415 1414 1412 1411 1410 1409 1409 1409 1410 1410 1410 1411 1410 1410 1410 1409 1409 1408 1408 1408 1407 1408 1409 1408 1408 1408 1408 1408 1408 1409 1409 1409 1410 1411 1412 1413 1415 1417 1419
1417 1415 1414 1412 1411 1409 1408 1407 1406 1406 1406 1406 1407 1407 1407 1407 1407 1407 1406 1405 1405 1405 1405 1404 1404 1405 1405 1405 1405 1405 1404 1405 1406 1406 1406 1407 1408 1409 1411 1413 1415 1417
1414 1413 1411 1409 1408 1406 1405 1404 1403 1403 1402 1403 1403 1403 1403 1404 1404 1403 1403 1403 1402 1402 1401 1401 1401 1401 1402 1401 1402 1402 1401 1402 1403 1403 1403 1404 1405 1406 1408 1410 1412 1415
1411 1410 1408 1406 1405 1404 1402 1401 1400 1400 1399 1399 1399 1399 1400 1400 1400 1400 1400 1399 1399 1399 1398 1398 1397 1397 1398 1398 1398 1398 1398 1399 1399 1399 1399 1400 1401 1403 1405 1406 1409 1412